Overview Statistics Trail Chart Weather Telemetry Raw packets
 

This is the latest recevied weather packets stored in our database for station/object M0JUI-1. If no packets are shown the sender has not sent any weather packets the latest 10 day(s).

<< 27 28 29 30 31 32 33 >>
Time Temp. Humidity Pressure Rain* Wind** Luminosity Snow
1788450009 20.56° C 2% 1014.8 hPa 0 mm - 180 W/m² -
1788449698 20.56° C 2% 1014.8 hPa 0 mm - 203 W/m² -
1788449397 21.11° C 2% 1014.9 hPa 0 mm - 196 W/m² -
1788449097 21.11° C 2% 1014.7 hPa 0 mm - 159 W/m² -
1788448797 21.11° C 1% 1014.8 hPa 0 mm - 138 W/m² -
1788448497 21.11° C 1% 1014.9 hPa 0 mm - 229 W/m² -
1788448197 21.11° C 1% 1014.8 hPa 0 mm - 229 W/m² -
1788447897 21.11° C 1% 1014.9 hPa 0 mm - 164 W/m² -
1788447597 21.11° C 1% 1014.7 hPa 0 mm - 172 W/m² -
1788447297 21.11° C 2% 1014.8 hPa 0 mm - 194 W/m² -
1788446997 21.11° C 4% 1014.7 hPa 0 mm - 174 W/m² -
1788446697 21.11° C 3% 1014.7 hPa 0 mm - 181 W/m² -
1788446397 21.67° C 3% 1014.9 hPa 0 mm - 177 W/m² -
1788446098 21.11° C 5% 1014.7 hPa 0 mm - 203 W/m² -
1788445797 21.67° C 5% 1014.9 hPa 0 mm - 252 W/m² -
1788445497 21.11° C 5% 1015 hPa 0 mm - 292 W/m² -
1788445198 21.11° C 3% 1015 hPa 0 mm - 226 W/m² -
1788444897 21.67° C 2% 1015 hPa 0 mm - 250 W/m² -
1788444597 21.67° C 3% 1015.1 hPa 0 mm - 275 W/m² -
1788444297 21.67° C 3% 1015 hPa 0 mm - 242 W/m² -
1788443997 21.67° C 3% 1014.9 hPa 0 mm - 495 W/m² -
1788443697 21.11° C 4% 1014.8 hPa 0 mm - 461 W/m² -
1788443397 20.56° C 5% 1014.9 hPa 0 mm - 241 W/m² -
1788443097 20.56° C 5% 1014.9 hPa 0 mm - 179 W/m² -
1788442798 20.56° C 4% 1014.9 hPa 0 mm - 226 W/m² -

* Rain latest hour (hover to see other rain measurements)
** Current wind speed in m/s (hover to see current wind gust speed)